User: anonymous   Login
Location: Bismarck
(46.7731°N, 100.8200°W)
Time: 10:36:40
(UTC-05:00)
Language:

Landsat 7 - Orbit

View from above orbital plane
View from above orbital plane
View from above satellite
View from above satellite

Ground track
Ground track

The orbit data is extracted from the following two-line orbital elements,

1 25682U 99020A   16270.16024780  .00000197  00000-0  53732-4 0  9998
2 25682  98.2058 339.1478 0001341  87.1934 272.9429 14.57110159928146
Epoch (UTC): 26 September 2016 03:50:45
Eccentricity: 0.0001341
inclination: 98.2058°
perigee height: 701 km
apogee height: 703 km
right ascension of ascending node: 339.1478°
argument of perigee: 87.1934°
revolutions per day: 14.57110159
mean anomaly at epoch: 272.9429°
orbit number at epoch: 92814

The dashed part of the orbit path shows where the satellite is in the earth's shadow,  

DLR